N312CL KL41-UT25

Flight info

Callsign N312CL
Flight time 0h 42m
Altitude 11000
Route 3656N11129W DCT KPGA DCT 3704N11114W DCT 3705N11058W 3703N11052W 3711N11044W 3716N11024W 3719N11010W 3710N10956W 3710N10951W/N0133F080 3706N10959W/N0133F090 DCT 37N10/N0134F080 DCT 3653N11006W 3657N11006W DCT 3701N11006W
Aircraft BE24/L-VGD/C

Departure

Time 2026-04-26 16:12
Airport Marble Canyon Airport (KL41)

Arrival

Time 2026-04-26 16:55
Airport Monument Valley Airport (UT25)
Time Latitude Longitude Altitude Speed Heading
2026-04-26 16:00 36.81533 -111.63856 3590 ft 0 kts 326°
2026-04-26 16:05 36.81534 -111.63858 3591 ft 1 kts 311°
2026-04-26 16:05 36.81531 -111.63878 3582 ft 4 kts 248°
2026-04-26 16:05 36.81513 -111.63918 3581 ft 6 kts 237°
2026-04-26 16:06 36.81484 -111.63973 3520 ft 10 kts 237°
2026-04-26 16:06 36.81438 -111.64045 3524 ft 10 kts 226°
2026-04-26 16:06 36.81382 -111.64113 3534 ft 12 kts 218°
2026-04-26 16:06 36.81315 -111.64189 3537 ft 15 kts 229°
2026-04-26 16:07 36.81219 -111.64297 3529 ft 22 kts 223°
2026-04-26 16:07 36.81114 -111.64416 3531 ft 17 kts 225°
2026-04-26 16:07 36.81032 -111.64510 3528 ft 15 kts 220°
2026-04-26 16:07 36.80949 -111.64603 3530 ft 17 kts 220°
2026-04-26 16:08 36.80855 -111.64708 3535 ft 19 kts 222°
2026-04-26 16:08 36.80787 -111.64785 3531 ft 21 kts 221°
2026-04-26 16:08 36.80709 -111.64872 3534 ft 5 kts 44°
2026-04-26 16:08 36.80804 -111.64766 3534 ft 36 kts 42°
2026-04-26 16:09 36.81078 -111.64459 3536 ft 70 kts 42°
2026-04-26 16:09 36.81495 -111.63968 3529 ft 88 kts 45°
2026-04-26 16:09 36.81971 -111.63480 3520 ft 91 kts 30°
2026-04-26 16:09 36.82497 -111.63054 3522 ft 89 kts 29°
2026-04-26 16:10 36.83078 -111.62645 3504 ft 98 kts 25°
2026-04-26 16:10 36.83709 -111.62266 3550 ft 100 kts 22°
2026-04-26 16:10 36.84341 -111.61861 3520 ft 101 kts 26°
2026-04-26 16:10 36.84962 -111.61500 3571 ft 99 kts 22°
2026-04-26 16:11 36.85362 -111.61183 3610 ft 101 kts 51°
2026-04-26 16:11 36.85858 -111.60524 3571 ft 107 kts 46°
2026-04-26 16:11 36.86449 -111.59953 3633 ft 111 kts 36°
2026-04-26 16:11 36.87083 -111.59555 3773 ft 96 kts 338°
2026-04-26 16:12 36.87676 -111.59915 3926 ft 97 kts 324°
2026-04-26 16:12 36.88286 -111.60371 4062 ft 104 kts 325°
2026-04-26 16:12 36.89541 -111.61296 4334 ft 107 kts 325°
2026-04-26 16:13 36.90162 -111.61770 4520 ft 102 kts 324°
2026-04-26 16:13 36.90778 -111.62248 4575 ft 107 kts 323°
2026-04-26 16:13 36.91344 -111.62820 4703 ft 103 kts 303°
2026-04-26 16:13 36.91741 -111.63555 4819 ft 102 kts 300°
2026-04-26 16:14 36.92152 -111.64264 4919 ft 101 kts 301°
2026-04-26 16:14 36.92566 -111.64988 4986 ft 103 kts 301°
2026-04-26 16:14 36.93388 -111.66461 5185 ft 105 kts 300°
2026-04-26 16:15 36.93973 -111.66979 5243 ft 110 kts 348°
2026-04-26 16:15 36.94718 -111.67215 5339 ft 110 kts 341°
2026-04-26 16:15 36.95457 -111.67481 5515 ft 110 kts 340°
2026-04-26 16:16 36.96939 -111.67955 5672 ft 106 kts 340°
2026-04-26 16:16 36.97644 -111.68187 5729 ft 106 kts 342°
2026-04-26 16:16 36.98371 -111.68331 5784 ft 110 kts
2026-04-26 16:16 36.98924 -111.67740 5873 ft 104 kts 63°
2026-04-26 16:17 36.99055 -111.66889 5913 ft 99 kts 107°
2026-04-26 16:17 36.98840 -111.66105 5895 ft 98 kts 116°
2026-04-26 16:17 36.98614 -111.65279 5808 ft 98 kts 115°
2026-04-26 16:17 36.98395 -111.64484 5800 ft 96 kts 118°
2026-04-26 16:18 36.98179 -111.63687 5850 ft 96 kts 114°
2026-04-26 16:18 36.97746 -111.62074 5924 ft 100 kts 117°
2026-04-26 16:19 36.97312 -111.60453 5965 ft 97 kts 114°
2026-04-26 16:19 36.97100 -111.59661 5971 ft 99 kts 119°
2026-04-26 16:19 36.96665 -111.58038 6007 ft 97 kts 115°
2026-04-26 16:20 36.96452 -111.57242 6052 ft 96 kts 115°
2026-04-26 16:20 36.96023 -111.55634 6251 ft 98 kts 111°
2026-04-26 16:20 36.95807 -111.54828 6306 ft 99 kts 116°
2026-04-26 16:21 36.95588 -111.54013 6348 ft 100 kts 117°
2026-04-26 16:21 36.95364 -111.53179 6374 ft 102 kts 117°
2026-04-26 16:21 36.95146 -111.52361 6437 ft 99 kts 115°
2026-04-26 16:21 36.94927 -111.51545 6489 ft 99 kts 117°
2026-04-26 16:22 36.94704 -111.50713 6553 ft 99 kts 114°
2026-04-26 16:22 36.94486 -111.49899 6615 ft 99 kts 114°
2026-04-26 16:22 36.94271 -111.49096 6660 ft 99 kts 117°
2026-04-26 16:22 36.94050 -111.48276 6696 ft 100 kts 116°
2026-04-26 16:23 36.93828 -111.47450 6769 ft 100 kts 118°
2026-04-26 16:23 36.93606 -111.46626 6844 ft 101 kts 117°
2026-04-26 16:23 36.93382 -111.45790 6901 ft 101 kts 117°
2026-04-26 16:23 36.93160 -111.44958 6953 ft 101 kts 116°
2026-04-26 16:24 36.93150 -111.44059 6963 ft 106 kts 88°
2026-04-26 16:24 36.93220 -111.43138 6971 ft 105 kts 90°
2026-04-26 16:24 36.93286 -111.42239 7022 ft 103 kts 91°
2026-04-26 16:24 36.93353 -111.41327 7048 ft 107 kts 90°
2026-04-26 16:25 36.93422 -111.40405 7093 ft 107 kts 91°
2026-04-26 16:25 36.93491 -111.39473 7163 ft 107 kts 90°
2026-04-26 16:25 36.93559 -111.38556 7228 ft 105 kts 89°
2026-04-26 16:25 36.93625 -111.37654 7296 ft 103 kts 91°
2026-04-26 16:26 36.93690 -111.36763 7352 ft 105 kts 91°
2026-04-26 16:26 36.93757 -111.35837 7399 ft 107 kts 89°
2026-04-26 16:26 36.93826 -111.34908 7438 ft 107 kts 91°
2026-04-26 16:26 36.93894 -111.33976 7501 ft 107 kts 91°
2026-04-26 16:27 36.93961 -111.33066 7541 ft 105 kts 92°
2026-04-26 16:27 36.94028 -111.32164 7530 ft 104 kts 88°
2026-04-26 16:27 36.94093 -111.31252 7563 ft 107 kts 91°
2026-04-26 16:27 36.94161 -111.30315 7616 ft 108 kts 91°
2026-04-26 16:28 36.94229 -111.29381 7635 ft 108 kts 91°
2026-04-26 16:28 36.94297 -111.28433 7656 ft 109 kts 89°
2026-04-26 16:28 36.94366 -111.27491 7686 ft 109 kts 90°
2026-04-26 16:28 36.94435 -111.26556 7732 ft 107 kts 90°
2026-04-26 16:29 36.94502 -111.25619 7753 ft 110 kts 90°
2026-04-26 16:29 36.94570 -111.24673 7807 ft 109 kts 91°
2026-04-26 16:29 36.94639 -111.23731 7906 ft 109 kts 92°
2026-04-26 16:29 36.94706 -111.22812 7886 ft 107 kts 90°
2026-04-26 16:30 36.94771 -111.21880 7897 ft 108 kts 91°
2026-04-26 16:30 36.94838 -111.20944 7927 ft 109 kts 90°
2026-04-26 16:30 36.94907 -111.20003 7979 ft 109 kts 90°
2026-04-26 16:30 36.94975 -111.19056 8019 ft 110 kts 90°
2026-04-26 16:31 36.95043 -111.18099 8083 ft 110 kts 90°
2026-04-26 16:31 36.95112 -111.17150 8160 ft 110 kts 97°
2026-04-26 16:31 36.95181 -111.16184 8191 ft 113 kts 95°
2026-04-26 16:31 36.95251 -111.15200 8186 ft 114 kts 98°
2026-04-26 16:32 36.95321 -111.14204 8213 ft 115 kts 94°
2026-04-26 16:32 36.95369 -111.13544 8223 ft 116 kts 95°
2026-04-26 16:32 36.95464 -111.12206 8330 ft 116 kts 97°
2026-04-26 16:32 36.95537 -111.11205 8337 ft 115 kts 98°
2026-04-26 16:33 36.95607 -111.10206 8361 ft 115 kts 96°
2026-04-26 16:33 36.95678 -111.09207 8426 ft 116 kts 96°
2026-04-26 16:33 36.95748 -111.08204 8505 ft 116 kts 95°
2026-04-26 16:33 36.95820 -111.07193 8615 ft 117 kts 94°
2026-04-26 16:34 36.95892 -111.06196 8711 ft 117 kts 96°
2026-04-26 16:34 36.95963 -111.05173 8704 ft 119 kts 94°
2026-04-26 16:34 36.96036 -111.04134 8701 ft 120 kts 94°
2026-04-26 16:34 36.96110 -111.03093 8739 ft 120 kts 95°
2026-04-26 16:35 36.96183 -111.02052 8759 ft 120 kts 95°
2026-04-26 16:35 36.96257 -111.01002 8580 ft 121 kts 95°
2026-04-26 16:35 36.96330 -110.99984 8595 ft 117 kts 95°
2026-04-26 16:35 36.96400 -110.98974 8602 ft 117 kts 95°
2026-04-26 16:36 36.96471 -110.97962 8606 ft 117 kts 95°
2026-04-26 16:36 36.96542 -110.96949 8584 ft 117 kts 95°
2026-04-26 16:36 36.96612 -110.95931 8590 ft 117 kts 96°
2026-04-26 16:36 36.96683 -110.94914 8648 ft 117 kts 96°
2026-04-26 16:37 36.96752 -110.93892 8692 ft 119 kts 94°
2026-04-26 16:37 36.96826 -110.92860 8714 ft 119 kts 95°
2026-04-26 16:37 36.96898 -110.91839 8756 ft 119 kts 95°
2026-04-26 16:37 36.96969 -110.90809 8781 ft 119 kts 95°
2026-04-26 16:38 36.97041 -110.89771 8804 ft 120 kts 95°
2026-04-26 16:38 36.97113 -110.88738 8851 ft 118 kts 95°
2026-04-26 16:38 36.97183 -110.87720 8883 ft 118 kts 95°
2026-04-26 16:38 36.97254 -110.86682 8879 ft 121 kts 94°
2026-04-26 16:39 36.97326 -110.85627 8885 ft 124 kts 94°
2026-04-26 16:39 36.97400 -110.84548 8889 ft 125 kts 94°
2026-04-26 16:39 36.97475 -110.83462 8892 ft 126 kts 94°
2026-04-26 16:39 36.97550 -110.82367 8891 ft 127 kts 94°
2026-04-26 16:40 36.97626 -110.81268 8894 ft 127 kts 95°
2026-04-26 16:40 36.97701 -110.80167 8875 ft 126 kts 97°
2026-04-26 16:40 36.97776 -110.79089 8880 ft 126 kts 97°
2026-04-26 16:40 36.97847 -110.77964 8894 ft 135 kts 96°
2026-04-26 16:41 36.97929 -110.76756 8906 ft 143 kts 95°
2026-04-26 16:41 36.98015 -110.75494 8908 ft 148 kts 94°
2026-04-26 16:41 36.98104 -110.74178 8905 ft 154 kts 95°
2026-04-26 16:41 36.98197 -110.72841 8906 ft 154 kts 95°
2026-04-26 16:42 36.98288 -110.71503 8895 ft 154 kts 94°
2026-04-26 16:42 36.98380 -110.70170 8899 ft 154 kts 94°
2026-04-26 16:42 36.98469 -110.68836 8900 ft 157 kts 95°
2026-04-26 16:42 36.98561 -110.67472 8904 ft 158 kts 95°
2026-04-26 16:43 36.98654 -110.66081 8896 ft 160 kts 94°
2026-04-26 16:43 36.98748 -110.64702 8894 ft 158 kts 95°
2026-04-26 16:43 36.98840 -110.63338 8892 ft 156 kts 94°
2026-04-26 16:43 36.98931 -110.61991 8895 ft 155 kts 94°
2026-04-26 16:44 36.99019 -110.60644 8896 ft 156 kts 95°
2026-04-26 16:44 36.99109 -110.59282 8899 ft 159 kts 94°
2026-04-26 16:44 36.99202 -110.57901 8886 ft 158 kts 94°
2026-04-26 16:44 36.99290 -110.56613 8893 ft 148 kts 95°
2026-04-26 16:45 36.99375 -110.55318 8889 ft 151 kts 95°
2026-04-26 16:45 36.99463 -110.54001 8880 ft 151 kts 95°
2026-04-26 16:45 36.99549 -110.52619 8686 ft 165 kts 93°
2026-04-26 16:45 36.99645 -110.51187 8485 ft 164 kts 93°
2026-04-26 16:46 36.99743 -110.49793 8313 ft 163 kts 94°
2026-04-26 16:46 36.99834 -110.48351 8098 ft 167 kts 95°
2026-04-26 16:46 36.99932 -110.46965 7886 ft 142 kts 95°
2026-04-26 16:46 37.00004 -110.45687 7755 ft 158 kts 92°
2026-04-26 16:47 37.00099 -110.44298 7532 ft 159 kts 92°
2026-04-26 16:47 37.00192 -110.42918 7393 ft 157 kts 92°
2026-04-26 16:47 37.00281 -110.41590 7392 ft 150 kts 93°
2026-04-26 16:47 37.00362 -110.40300 7391 ft 153 kts 91°
2026-04-26 16:48 37.00449 -110.38945 7384 ft 157 kts 92°
2026-04-26 16:48 37.00535 -110.37605 7379 ft 146 kts 90°
2026-04-26 16:48 37.00617 -110.36389 7383 ft 135 kts 94°
2026-04-26 16:48 37.00693 -110.35200 7379 ft 137 kts 93°
2026-04-26 16:49 37.00771 -110.34019 7379 ft 139 kts 94°
2026-04-26 16:49 37.00847 -110.32802 7385 ft 142 kts 94°
2026-04-26 16:49 37.00926 -110.31520 7226 ft 154 kts 93°
2026-04-26 16:49 37.01015 -110.30149 7010 ft 161 kts 93°
2026-04-26 16:50 37.01106 -110.28745 6800 ft 163 kts 92°
2026-04-26 16:50 37.01199 -110.27317 6590 ft 166 kts 91°
2026-04-26 16:50 37.01291 -110.25874 6401 ft 165 kts 91°
2026-04-26 16:50 37.01380 -110.24512 6379 ft 150 kts 92°
2026-04-26 16:51 37.01465 -110.23296 6382 ft 134 kts 94°
2026-04-26 16:51 37.01534 -110.22127 6342 ft 133 kts 95°
2026-04-26 16:51 37.01864 -110.21072 6209 ft 138 kts 40°
2026-04-26 16:51 37.02644 -110.21138 5988 ft 111 kts 309°
2026-04-26 16:52 37.03181 -110.21814 5765 ft 110 kts 305°
2026-04-26 16:52 37.03364 -110.22045 5707 ft 109 kts 303°
2026-04-26 16:52 37.04257 -110.23098 5333 ft 118 kts 340°
2026-04-26 16:52 37.04922 -110.22677 5270 ft 107 kts 76°
2026-04-26 16:53 37.04857 -110.21899 5254 ft 81 kts 137°
2026-04-26 16:53 37.04551 -110.21330 5277 ft 74 kts 140°
2026-04-26 16:53 37.04238 -110.20864 5223 ft 68 kts 152°
2026-04-26 16:53 37.03846 -110.20538 5206 ft 69 kts 165°
2026-04-26 16:54 37.03400 -110.20384 5215 ft 66 kts 181°
2026-04-26 16:54 37.02938 -110.20365 5219 ft 69 kts 179°
2026-04-26 16:54 37.02443 -110.20306 5175 ft 69 kts 181°
2026-04-26 16:54 37.02021 -110.20255 5125 ft 53 kts 176°
2026-04-26 16:55 37.01750 -110.20220 5155 ft 27 kts 174°
2026-04-26 16:55 37.01618 -110.20197 5169 ft 13 kts 171°
2026-04-26 16:55 37.01559 -110.20193 5173 ft 5 kts 180°
2026-04-26 16:55 37.01512 -110.20187 5176 ft 12 kts 176°
2026-04-26 16:56 37.01334 -110.20167 5193 ft 6 kts 173°
2026-04-26 16:56 37.01318 -110.20134 5194 ft 5 kts 85°
2026-04-26 16:56 37.01318 -110.20133 5194 ft 0 kts 89°